RH
99 99 100 98 96 94 90 87 86 84 82 83 85 89 90 89 89 87 86 86 84 79 77 76 78 78 72 68 73 76 73 77 88 87 82 82 77 72 75 78 77 80 82 81 81 85 85 79 82 90 89 87 90 93 96 93 91 91 87 86 85 85 82 79 86 90 91 96 99 98 98 93 91 94 96 96 93 91 88 86 88 91 89 90 92
100 99 100 100 94 89 89 89 86 87 87 86 89 97 98 97 99 98 96 98 97 94 92 91 91 90 83 78 83 82 73 75 85 88 85 85 85 79 76 76 77 85 82 73 77 84 85 83 82 86 88 88 92 98 96 86 86 91 89 85 82 84 85 81 85 93 95 97 98 98 98 97 97 97 98 95 92 92 91 90 92 91 90 92 94
100 99 100 100 91 84 91 95 93 91 87 83 84 88 91 93 95 96 98 100 100 99 98 97 96 96 93 91 90 83 76 77 82 89 89 87 88 86 81 79 81 86 77 65 70 77 82 86 84 84 88 91 95 98 93 83 82 86 88 87 82 83 88 87 87 91 95 96 95 96 97 98 96 95 99 95 91 97 98 95 94 92 93 93 94
100 99 99 101 95 90 96 99 97 95 92 90 90 91 92 93 94 95 98 99 100 100 99 100 99 97 98 99 95 86 81 83 86 91 91 88 89 90 87 86 85 82 75 68 69 73 78 84 85 86 89 92 92 91 89 86 84 85 88 88 82 81 85 88 91 94 95 94 94 94 95 95 90 89 98 97 90 97 101 97 93 91 94 95 93
99 100 99 100 99 97 99 100 99 98 98 98 96 97 98 98 99 99 99 100 100 100 100 100 100 99 99 100 99 96 92 90 91 91 89 88 89 93 93 89 86 81 75 73 71 73 77 79 83 86 88 91 89 83 85 87 87 89 90 86 80 80 83 88 92 94 97 96 93 93 93 92 88 87 94 96 90 93 99 99 94 90 92 94 92
97 99 100 100 100 100 100 99 100 100 98 93 89 90 93 97 100 100 100 100 100 100 100 100 100 100 99 100 100 99 97 95 94 90 89 92 94 97 98 91 88 84 75 72 74 77 78 78 81 84 87 91 88 81 82 86 88 89 88 84 81 84 87 91 91 90 96 100 95 91 86 82 86 91 93 92 90 94 98 97 94 92 91 93 90
98 99 100 100 99 100 100 99 100 99 93 87 87 89 93 98 100 100 100 100 100 100 99 99 100 100 99 99 99 98 98 97 96 93 93 96 96 96 97 94 92 88 78 72 75 78 78 79 82 83 85 88 84 80 81 82 84 86 84 82 84 88 90 91 89 85 90 98 99 95 86 77 80 89 93 91 90 94 96 91 91 92 92 92 90
100 100 100 100 100 100 100 100 100 98 94 93 95 97 99 100 99 99 100 99 100 100 99 100 100 100 100 99 99 99 99 99 99 99 97 95 95 94 96 98 97 91 83 76 75 78 78 80 83 82 82 83 79 78 83 84 84 85 83 85 87 89 89 88 86 83 84 89 95 96 90 83 79 82 90 92 90 90 93 93 93 93 91 91 91
100 100 100 100 100 100 100 100 100 100 98 95 95 97 99 100 98 98 99 99 100 99 98 100 99 100 100 98 99 100 99 99 99 100 98 93 93 95 94 95 97 94 90 85 80 81 80 80 81 79 78 78 75 77 83 85 87 87 85 86 87 87 88 86 83 83 83 84 87 89 91 89 84 83 86 87 85 86 92 96 96 95 93 91 90
100 100 100 100 100 100 100 100 100 100 97 93 93 97 99 100 100 99 99 99 100 99 99 99 100 101 99 96 96 99 100 100 100 101 97 92 94 93 83 77 80 88 94 94 91 87 85 82 79 76 74 73 71 73 77 80 85 87 86 86 85 86 88 85 81 84 87 88 88 87 89 88 85 83 81 81 81 83 88 93 96 98 97 96 92
100 99 100 100 99 100 99 98 97 97 96 94 95 98 100 100 100 100 100 100 100 100 99 98 99 100 99 98 98 99 99 96 95 93 86 83 89 89 79 70 72 78 83 88 94 92 87 83 80 76 74 72 69 70 72 74 79 83 86 87 87 89 88 82 82 85 88 92 93 93 91 89 86 83 82 83 83 82 86 91 96 99 98 99 96
99 99 99 98 96 96 95 93 93 93 93 94 95 98 100 100 100 100 99 100 100 100 99 98 98 98 95 92 94 97 100 98 93 85 77 73 77 80 79 76 77 80 80 78 85 90 86 82 80 77 75 73 71 72 73 73 78 82 86 87 88 91 90 84 83 83 84 89 92 92 93 91 88 88 89 87 84 86 88 90 96 99 99 99 96
100 100 99 98 96 95 94 91 90 90 91 93 95 98 99 99 100 100 100 99 98 97 97 94 91 90 87 81 80 80 81 88 92 87 74 66 67 74 78 77 77 83 85 79 78 83 82 79 79 76 74 73 73 74 76 77 80 83 85 87 87 89 89 85 82 81 82 89 90 90 93 93 90 89 91 87 82 84 89 91 95 97 96 98 98
100 100 100 100 99 99 98 94 90 88 89 89 91 92 94 96 97 96 96 94 92 90 89 86 80 78 80 81 80 73 65 69 81 81 70 66 73 83 86 85 84 86 86 84 84 86 84 79 76 76 75 74 74 75 79 82 84 85 85 86 85 85 85 83 81 81 86 92 93 91 92 94 92 89 91 88 80 79 85 91 95 97 96 98 100
100 100 100 100 100 100 99 96 92 88 86 85 84 85 85 87 88 89 89 89 89 88 86 86 83 79 81 83 83 79 72 69 74 76 77 83 91 92 92 92 92 90 85 85 88 89 88 83 77 76 76 76 77 78 82 85 84 84 85 85 84 82 80 81 82 84 89 93 91 91 92 92 93 92 90 87 81 80 86 89 90 93 96 99 101
100 99 100 100 99 100 99 97 92 85 81 81 83 85 84 84 84 84 84 83 84 85 86 87 85 83 83 80 76 77 80 80 81 84 88 92 89 79 80 90 97 95 87 82 81 78 80 82 78 76 77 79 81 82 84 84 81 82 84 84 86 84 77 78 81 84 89 92 91 93 93 89 89 91 90 87 83 83 87 87 86 87 90 95 100
100 100 100 100 99 99 98 97 93 85 83 87 90 92 92 91 88 83 80 78 78 80 83 83 80 81 83 80 75 77 86 91 89 85 81 76 68 58 63 84 97 97 90 84 80 76 75 77 76 76 79 82 84 83 84 83 79 79 83 86 86 83 78 78 82 85 88 91 92 94 94 89 87 87 88 86 83 84 86 86 87 87 86 86 89
100 100 99 99 100 98 96 97 97 94 94 97 98 97 96 95 93 88 82 78 78 78 80 80 78 80 83 82 79 78 83 85 80 75 70 62 53 50 63 80 89 94 94 87 83 79 76 77 78 81 85 85 83 81 83 84 82 80 83 86 83 80 82 83 85 88 90 90 92 94 93 92 89 88 89 87 84 85 85 85 86 87 87 82 78
98 98 98 98 99 99 97 98 99 98 99 99 97 94 91 90 90 89 86 83 82 82 85 87 85 86 87 83 81 79 77 74 71 70 68 59 51 52 68 84 89 92 92 88 87 85 80 81 86 88 89 87 82 81 83 84 85 83 82 81 79 80 85 86 88 91 92 92 93 92 91 92 90 88 90 89 85 86 85 85 85 83 83 83 80
98 98 100 99 99 100 99 99 99 97 97 97 94 91 87 86 84 83 82 80 79 80 85 92 94 95 94 88 82 78 75 71 69 67 60 53 52 55 66 85 93 86 79 79 84 84 80 83 88 89 89 86 80 80 84 84 84 83 82 81 81 86 88 88 89 90 89 90 92 90 89 92 90 85 87 89 86 86 85 85 85 81 78 81 82
100 100 100 100 100 100 100 99 98 96 97 96 93 90 87 84 81 78 75 73 71 72 76 85 94 98 97 93 86 83 82 79 74 68 57 51 55 56 60 78 91 87 78 75 78 80 81 83 88 89 85 81 79 80 82 84 83 82 84 85 86 89 91 89 88 86 84 85 87 88 88 91 89 84 86 88 85 85 85 84 84 79 73 76 80
100 100 100 100 100 100 100 100 98 96 97 96 92 89 86 83 80 76 73 70 69 67 68 75 86 96 97 91 87 87 87 81 74 71 66 61 62 63 62 70 83 89 85 80 78 79 81 85 90 89 82 76 78 82 83 82 82 83 85 87 88 90 90 88 86 85 83 82 84 86 87 88 87 84 85 87 85 83 82 83 81 72 65 69 75
100 100 100 100 100 100 100 100 99 99 100 98 93 89 86 82 79 76 74 72 70 67 67 70 76 88 92 86 83 88 88 77 69 71 73 68 64 65 65 64 70 81 86 85 83 82 85 91 93 89 82 77 78 83 84 82 82 84 85 86 87 88 90 89 87 85 83 81 82 83 83 84 83 83 83 84 84 83 80 82 79 66 60 63 66
100 99 100 100 99 100 100 100 100 100 100 98 94 91 87 82 77 75 74 74 73 70 70 72 74 79 83 77 74 82 86 81 75 73 73 72 70 70 73 71 70 76 81 82 82 83 86 90 92 90 83 80 80 80 79 79 81 82 83 83 83 86 90 89 85 84 82 80 79 79 79 79 80 82 82 81 82 83 80 82 78 63 58 61 61
100 100 100 99 100 100 99 100 100 99 100 99 96 92 88 82 77 74 73 73 74 73 70 71 73 75 79 79 75 75 78 83 84 81 78 79 80 83 87 86 82 79 78 74 75 79 79 79 85 91 89 84 81 78 74 74 76 78 79 80 83 86 88 87 83 83 82 79 79 79 77 77 80 82 81 79 82 82 80 81 75 61 56 59 60
100 100 100 99 100 100 99 100 100 99 100 98 95 92 91 88 83 78 75 72 71 72 72 71 72 71 73 78 80 80 81 83 87 88 87 86 85 87 92 93 88 83 77 70 70 77 80 76 74 80 88 89 84 80 75 70 71 75 76 78 85 88 88 85 83 82 79 76 80 81 77 76 79 82 81 79 81 83 81 80 72 59 55 57 59
100 100 100 100 100 100 100 100 99 99 99 97 94 92 94 95 90 83 79 74 69 70 73 74 75 74 73 74 77 82 88 90 90 90 92 93 93 91 93 95 92 87 80 71 69 78 86 83 70 64 76 90 90 85 79 72 72 77 77 78 85 88 88 86 84 81 78 78 83 83 78 76 79 82 82 80 82 84 81 79 72 60 55 57 59
100 100 100 100 100 100 100 100 98 97 97 96 93 90 92 93 90 85 80 76 71 69 70 71 72 74 74 74 74 75 81 88 92 92 89 89 93 95 96 97 98 95 87 76 71 78 86 84 72 61 69 86 92 87 83 78 77 80 80 80 82 83 82 82 83 82 80 82 85 82 79 80 81 84 84 81 83 85 82 82 79 67 59 59 60
100 100 100 100 100 100 100 99 97 95 94 94 92 89 89 89 88 86 82 78 75 70 67 66 66 68 71 72 73 73 75 80 87 91 90 87 88 93 97 98 99 99 96 86 78 80 83 83 77 69 71 85 90 88 86 81 76 75 76 77 78 77 75 76 80 80 78 81 84 82 81 83 84 86 87 82 84 86 83 86 85 72 64 64 62
99 99 100 100 100 100 100 98 96 92 90 91 91 89 88 87 88 88 84 82 79 72 67 65 63 65 69 74 78 78 77 78 81 85 89 89 89 91 94 97 98 98 99 96 88 83 83 85 84 77 76 85 90 88 88 83 76 72 71 71 72 71 71 73 73 72 72 75 77 78 81 83 82 86 89 86 85 85 81 84 84 74 69 69 63
98 98 98 99 98 98 97 95 93 90 88 90 90 88 86 86 88 89 86 84 82 77 72 68 65 63 64 68 73 77 79 80 82 86 88 91 95 95 94 96 98 96 95 96 94 91 89 90 89 81 79 85 89 88 88 83 75 71 70 71 71 71 71 71 69 70 72 72 72 73 77 81 81 84 88 88 86 82 76 78 81 76 73 71 61
95 94 94 94 94 92 91 90 89 87 88 89 88 86 84 83 86 88 86 82 82 82 79 76 72 68 64 63 63 68 73 76 83 91 94 95 99 99 98 99 96 93 93 95 96 94 92 92 92 87 84 86 88 89 88 80 72 71 75 77 77 74 71 70 71 74 76 75 76 75 76 79 82 84 87 84 78 72 67 69 73 71 68 64 57
92 90 90 89 89 88 87 86 85 84 84 84 84 85 83 83 86 87 84 80 80 82 82 82 80 75 70 67 64 62 64 68 77 90 97 99 100 99 101 100 93 89 92 95 96 94 93 94 93 90 88 88 88 89 85 79 75 76 78 78 75 71 69 69 71 74 75 76 78 80 83 85 84 85 86 79 69 63 60 61 63 62 59 56 53
87 87 86 85 85 84 83 82 80 77 76 75 76 79 80 82 85 85 83 78 77 80 81 83 85 83 78 73 68 65 64 65 71 82 91 96 98 98 99 99 94 90 91 95 98 98 98 97 95 92 87 86 89 88 82 80 81 78 74 72 69 66 66 68 70 72 71 71 77 84 88 85 80 81 82 73 64 60 58 58 58 57 55 53 53
83 84 84 82 82 80 79 77 73 69 67 66 67 70 73 77 80 82 81 79 78 80 79 79 84 88 86 79 71 68 68 68 72 80 86 91 95 98 98 99 99 97 96 97 99 100 100 99 99 96 88 87 92 89 81 81 82 76 71 71 70 68 66 67 71 72 67 69 78 84 82 79 79 80 75 65 62 61 59 58 58 57 57 57 57
84 85 83 81 79 76 74 70 66 63 62 60 61 62 63 66 68 70 74 76 77 79 78 78 81 86 90 86 75 69 70 72 76 84 89 91 95 99 100 99 100 100 100 99 99 100 100 98 99 98 92 90 91 85 81 84 84 75 71 71 71 71 68 67 71 70 67 72 79 79 76 76 77 75 69 63 63 64 62 63 64 63 64 65 64
86 84 82 78 74 72 71 67 62 60 58 56 55 54 54 55 55 56 59 63 68 73 78 82 85 86 90 91 83 74 72 74 77 82 86 89 93 97 99 100 100 100 100 100 100 100 100 99 100 98 90 85 83 80 82 86 84 76 72 72 72 72 70 68 68 68 70 76 77 73 74 75 71 69 68 67 68 70 69 70 68 66 67 68 67
83 80 78 75 73 72 70 65 61 59 57 55 53 52 51 51 49 49 50 51 56 64 73 83 90 91 92 94 91 82 76 77 80 83 87 91 95 98 99 100 100 100 100 99 99 99 100 100 100 95 86 80 80 84 86 85 80 75 73 71 70 69 69 69 67 67 73 79 76 71 71 70 67 68 69 71 73 73 70 68 66 66 68 68 63
79 77 75 74 74 73 70 66 64 62 59 57 56 55 55 55 53 50 49 48 51 60 69 79 88 92 94 96 95 90 84 83 86 89 93 96 98 99 99 99 100 100 98 97 99 101 101 99 97 90 84 82 83 86 87 83 78 75 71 66 62 62 65 67 67 69 76 82 80 75 73 73 73 73 73 74 74 74 74 74 71 69 67 63 57
81 79 77 75 74 72 72 71 69 66 63 59 57 57 59 62 60 56 51 49 51 59 68 75 81 87 91 93 95 96 94 91 91 94 98 100 100 98 98 99 100 100 99 98 98 94 89 92 95 89 82 82 84 85 85 82 78 76 70 62 59 61 62 64 67 72 78 82 81 78 77 78 77 77 75 74 75 81 84 82 75 68 64 61 60
85 83 81 78 76 76 76 76 75 72 69 66 63 63 65 67 67 64 59 54 51 54 61 69 75 80 85 90 94 98 100 98 96 96 98 99 100 99 99 100 99 100 100 97 91 84 80 90 98 92 85 85 84 82 82 82 79 77 71 65 64 66 66 67 73 78 80 80 79 78 79 79 77 78 80 82 86 89 86 77 70 67 67 69 69
87 85 83 80 78 77 77 76 76 75 74 73 72 72 72 72 72 72 69 63 57 55 55 60 68 75 80 87 93 98 100 100 99 98 98 99 99 99 99 100 100 100 100 96 92 92 94 97 97 93 93 93 87 83 85 86 85 83 79 74 73 74 74 74 78 81 80 79 78 77 78 81 82 83 85 88 89 85 78 73 71 71 71 72 70
83 83 82 79 78 78 78 78 78 77 77 78 77 78 78 78 78 79 75 71 66 62 58 56 60 67 75 83 91 96 99 100 100 99 98 97 97 96 94 94 95 98 99 98 98 99 100 98 94 95 99 98 94 93 92 89 90 94 93 91 89 88 88 88 87 86 86 85 84 84 85 89 89 84 79 78 77 74 72 73 73 70 68 67 65
80 80 78 76 77 80 79 79 79 79 80 80 79 80 81 81 82 81 78 75 72 69 65 61 57 58 65 75 86 94 96 95 93 89 85 84 87 90 90 89 89 90 91 93 94 94 95 95 95 97 100 100 99 101 99 96 96 98 99 99 99 97 97 96 93 91 90 90 89 88 87 87 85 80 77 77 76 73 73 73 71 68 67 66 65
83 82 79 76 77 79 78 78 79 78 79 79 78 77 75 75 77 78 79 79 77 73 69 65 59 54 53 60 73 85 91 92 87 80 75 76 79 83 86 87 88 88 88 89 89 87 87 88 89 89 91 92 94 95 98 99 101 101 100 100 100 99 97 95 93 88 86 89 91 90 89 89 89 88 88 87 83 77 74 72 70 68 67 64 59
84 83 80 76 76 76 76 77 78 76 75 74 72 69 67 67 67 67 70 75 78 78 74 69 65 60 54 51 55 65 78 88 90 86 82 81 81 82 82 82 83 83 84 85 88 89 87 86 87 87 86 86 86 87 88 91 92 94 96 96 96 96 96 97 97 94 93 97 99 97 95 94 92 89 85 81 76 71 68 65 62 60 58 54 50
83 82 80 77 75 75 76 76 76 75 73 71 68 67 67 67 65 62 61 62 68 75 78 76 73 70 65 59 55 54 59 66 73 77 77 76 75 73 71 73 79 82 79 76 77 83 87 87 87 88 88 87 87 86 85 86 86 86 86 86 86 87 87 88 89 87 85 85 85 85 83 80 76 74 71 66 63 61 58 56 54 53 52 50 51
82 81 80 78 77 77 76 75 76 75 73 71 70 69 68 68 67 64 59 55 57 64 71 77 78 76 74 72 68 64 61 58 57 59 60 61 60 58 59 63 70 76 78 74 69 71 80 85 85 87 88 88 88 89 89 90 90 88 87 86 86 86 86 86 85 82 78 76 77 79 78 75 71 69 67 65 63 60 58 58 58 59 60 59 60
78 78 79 79 78 78 78 77 76 76 75 74 74 73 71 69 69 66 59 55 57 61 65 70 74 76 78 78 77 76 74 69 64 61 59 60 61 62 64 66 65 65 69 69 64 63 72 81 83 84 85 85 86 89 91 94 95 94 92 91 90 89 90 91 90 89 86 83 80 78 75 72 69 67 67 67 66 64 63 64 65 65 65 64 61
77 76 77 77 77 78 78 77 78 78 76 74 73 74 74 72 70 67 60 56 59 65 67 68 71 76 79 80 81 82 82 80 77 72 67 65 65 64 63 64 65 65 64 62 59 59 65 72 74 76 79 80 80 83 85 88 91 91 91 91 91 90 90 89 88 87 85 83 80 78 78 77 75 73 71 69 67 67 67 66 66 65 62 57 50
76 76 77 76 76 77 78 77 76 75 75 74 71 71 73 73 73 70 64 59 61 65 67 69 73 77 80 81 82 84 84 84 83 81 77 74 72 69 65 62 62 63 61 59 58 59 64 67 68 71 74 74 74 76 77 79 81 83 84 84 85 85 87 87 87 87 86 84 81 78 77 77 77 77 75 72 70 70 69 68 68 65 58 50 44
Wind_Speed
8 9 8 8 8 6 6 7 9 11 11 12 14 16 17 17 19 20 20 20 21 23 23 24 26 27 28 28 28 28 26 23 22 21 19 17 16 16 16 14 13 13 14 15 15 15 16 17 17 18 18 18 18 16 15 14 13 13 14 15 14 13 13 12 11 10 9 9 9 8 7 7 7 8 8 8 7 7 7 6 5 5 6 5 3
8 9 10 10 8 6 7 8 9 11 12 13 12 13 16 17 18 20 21 21 21 21 22 23 24 25 27 26 25 27 27 25 23 22 20 18 17 17 17 16 14 14 14 14 15 16 16 17 18 18 18 17 16 15 13 12 12 12 13 15 14 13 12 12 12 12 11 11 11 9 8 7 7 8 8 8 7 7 7 6 5 5 6 5 4
8 8 10 10 8 6 9 9 9 11 11 12 12 12 14 15 17 19 21 21 21 22 22 24 24 25 25 23 23 25 27 26 25 23 21 20 19 18 18 17 15 15 15 14 16 17 16 17 19 18 18 16 14 14 13 12 13 12 13 14 13 13 13 13 14 13 12 12 10 9 11 10 8 9 8 9 10 8 7 6 6 5 6 6 5
6 8 8 10 8 8 10 10 9 10 9 9 10 11 12 13 14 17 18 19 21 22 23 23 23 24 24 21 21 24 27 27 25 24 23 22 20 19 19 17 16 16 15 14 16 18 17 18 19 19 20 18 15 15 13 12 13 13 14 15 14 14 15 15 15 14 13 13 10 9 10 10 8 10 10 10 10 9 7 6 6 6 7 7 7
2 5 6 6 6 7 9 8 7 7 7 8 9 10 11 12 13 14 16 17 19 20 21 20 20 22 22 20 18 20 25 27 26 25 25 24 22 22 19 17 16 16 15 14 15 17 18 18 19 20 21 20 17 15 14 13 13 14 15 15 15 14 15 16 15 15 13 12 11 8 7 7 9 10 11 11 11 10 9 8 7 7 8 8 8
4 1 1 1 1 2 2 3 4 5 7 9 10 10 11 11 12 13 14 14 15 16 17 16 16 18 20 21 20 19 21 25 25 25 26 25 23 20 17 15 16 16 15 14 15 17 17 17 18 20 21 21 18 15 14 14 13 14 15 14 14 14 15 16 16 15 14 13 13 10 7 6 7 9 10 10 10 11 10 9 8 7 7 8 8
9 6 4 5 5 4 3 3 4 6 8 9 10 10 11 11 12 13 13 13 12 13 13 15 16 17 18 20 21 20 20 22 22 22 24 23 19 16 14 14 15 15 14 14 16 17 17 17 17 18 19 20 18 16 15 15 14 14 14 14 14 14 15 15 15 15 15 15 14 13 9 5 5 7 9 10 10 10 9 9 9 8 8 9 8
11 10 7 6 6 5 4 4 5 6 8 9 10 10 10 11 12 13 12 11 11 11 11 13 15 17 18 19 20 20 19 21 20 19 19 18 15 14 13 13 13 14 14 14 15 16 16 17 16 17 19 19 18 17 16 15 15 15 14 14 14 15 15 15 15 15 15 16 15 14 12 9 6 4 6 8 9 9 9 9 9 9 9 9 10
14 13 11 9 7 7 6 5 6 7 8 9 10 11 11 11 12 12 12 12 13 13 12 13 14 15 16 16 16 16 16 18 18 17 18 15 12 12 12 12 12 13 14 15 16 16 16 17 18 17 18 19 19 17 16 15 16 16 15 16 16 16 15 16 16 14 13 13 15 15 14 12 10 6 5 7 7 8 8 9 10 10 9 10 11
17 17 16 14 11 9 8 7 8 7 8 9 9 9 10 11 12 12 12 12 13 13 13 13 14 15 16 14 13 13 13 14 15 16 16 12 9 10 11 11 12 12 14 16 16 16 16 18 19 18 17 19 19 18 17 16 16 16 16 17 17 17 17 17 17 13 11 11 14 15 15 14 13 9 6 6 8 6 6 8 10 11 11 10 10
17 17 17 16 15 13 11 8 8 8 9 11 12 10 11 11 12 12 11 11 11 12 14 14 12 13 15 14 12 11 12 12 13 13 11 10 10 9 9 10 12 13 14 16 17 16 17 19 19 19 18 18 19 19 18 18 17 17 17 17 17 17 17 18 17 14 11 12 13 14 15 14 12 9 5 4 6 5 5 7 9 10 10 9 10
17 17 16 16 15 15 13 11 9 9 10 13 15 15 15 13 12 12 10 10 11 12 14 14 13 11 12 12 11 10 10 11 14 15 13 12 12 11 10 11 12 14 15 17 18 17 18 19 20 20 20 19 19 19 20 19 18 18 19 19 18 18 18 18 17 15 13 13 13 13 14 14 12 10 7 4 4 5 5 6 7 9 9 8 10
18 18 17 16 16 16 15 14 13 12 13 14 16 17 18 16 15 14 13 12 12 12 13 14 15 12 11 12 12 12 12 13 15 16 15 15 14 12 13 13 14 16 18 18 18 18 18 19 20 21 20 20 19 20 20 19 19 19 19 20 19 19 19 18 17 16 14 13 13 13 14 13 12 10 8 6 5 5 6 7 7 8 9 9 9
19 19 18 17 17 16 16 16 16 15 15 15 15 16 16 15 15 15 14 14 14 15 15 16 17 16 15 15 14 14 15 15 16 16 16 16 15 13 14 14 15 17 18 18 18 18 18 18 19 20 20 19 19 19 19 19 19 19 19 19 18 18 19 18 16 15 14 13 13 14 15 14 12 10 8 7 6 6 6 7 7 7 8 8 8
19 19 18 18 17 16 16 16 15 16 16 15 15 14 14 13 14 14 14 14 14 15 15 14 15 15 15 14 14 14 14 15 16 16 15 15 14 14 15 16 15 16 17 17 16 17 18 18 18 19 20 20 19 19 19 19 19 19 19 19 18 18 18 18 17 16 15 14 13 14 14 13 12 10 9 7 7 6 5 6 7 8 9 8 8
18 17 17 17 16 15 15 15 15 15 15 15 15 15 15 15 14 14 14 14 14 14 14 13 13 13 12 11 11 11 12 13 13 13 13 13 15 17 17 16 15 15 17 16 15 16 18 18 19 20 20 20 20 20 20 19 19 18 19 19 18 18 18 18 17 16 15 14 13 13 13 12 11 10 9 9 8 7 6 6 6 8 10 9 8
17 17 17 17 16 15 15 15 15 14 13 13 14 15 16 16 15 14 13 12 13 13 15 15 15 14 12 11 10 9 9 10 10 11 13 12 13 17 19 17 15 16 17 16 16 16 18 19 20 20 20 20 20 20 20 19 18 18 19 19 19 18 18 18 18 17 16 15 13 13 12 11 11 11 10 10 10 8 7 7 6 7 10 9 7
16 16 17 16 15 14 14 13 13 13 13 13 14 15 16 16 16 15 14 14 13 14 15 16 17 15 14 13 11 10 10 10 10 10 10 9 10 14 18 17 15 17 18 17 16 17 18 18 19 20 20 20 20 19 20 20 19 18 19 19 19 18 18 18 18 16 16 14 14 14 13 13 13 12 11 10 11 9 8 8 7 7 10 9 6
16 16 16 16 15 15 13 12 12 12 13 14 14 15 16 16 16 15 15 15 15 15 15 16 17 16 15 15 13 12 12 12 11 9 8 10 11 12 15 16 16 17 17 16 17 17 18 19 19 20 20 20 20 19 20 20 20 19 19 19 19 18 18 18 17 16 15 14 14 13 13 13 13 13 11 11 11 10 9 9 8 9 11 11 7
16 16 16 16 15 15 13 12 12 12 13 15 15 15 15 14 14 15 15 15 15 15 15 15 17 16 14 13 14 13 12 12 13 12 11 11 11 12 14 16 16 17 17 17 18 19 19 20 20 21 21 20 20 20 20 21 21 21 20 19 18 18 18 17 16 16 15 15 15 13 13 14 13 12 12 12 11 11 11 10 9 10 11 10 8
15 15 15 15 14 14 13 13 13 13 14 15 15 16 16 16 15 15 15 15 15 14 14 14 13 13 11 9 10 11 11 12 13 14 12 11 12 13 14 16 17 18 18 19 20 21 21 22 22 22 21 21 21 21 21 21 21 21 20 19 19 20 19 18 17 16 16 16 15 14 15 14 12 12 13 13 12 12 13 12 11 12 12 11 8
14 14 14 13 13 13 12 13 13 14 15 15 15 16 17 17 18 17 16 16 15 14 13 12 11 11 9 7 8 11 12 12 13 13 14 14 14 15 16 18 19 19 20 20 21 22 23 24 24 23 22 22 22 22 21 21 21 20 19 19 20 19 19 18 18 17 16 16 16 15 16 15 13 13 13 13 13 13 13 14 13 14 14 13 11
13 13 13 13 13 12 12 12 13 14 16 17 17 17 17 17 17 18 18 17 15 13 12 11 9 9 9 8 9 11 12 13 13 14 15 16 17 17 18 20 20 20 21 21 21 22 24 25 25 23 21 21 22 23 22 21 21 20 19 19 19 18 18 19 18 17 16 16 16 16 16 16 15 15 15 14 14 14 14 14 14 16 17 16 15
11 11 12 12 12 13 14 14 15 17 19 20 20 19 19 18 17 18 20 20 17 13 10 10 9 8 9 8 10 13 14 14 15 15 16 17 18 19 20 21 20 20 22 22 21 22 24 25 24 22 20 20 21 22 22 22 22 21 20 19 19 18 18 18 17 16 16 15 15 16 16 17 17 17 16 16 16 16 16 16 16 18 19 18 18
11 11 11 12 13 15 16 17 18 19 20 22 23 22 21 20 19 19 21 23 21 15 10 9 9 8 9 10 12 15 17 17 17 17 17 18 19 20 21 21 21 21 22 23 23 23 24 24 24 22 20 18 19 21 22 22 23 22 21 19 18 18 17 17 17 16 16 15 15 16 16 17 18 18 17 17 17 17 17 17 17 19 20 20 19
12 12 12 12 13 14 16 18 19 20 21 23 24 24 23 23 22 22 23 25 25 19 12 8 8 8 8 9 12 15 18 19 19 19 19 19 20 21 21 22 22 22 23 24 24 24 24 24 24 22 20 18 17 19 20 21 22 22 21 19 18 17 17 16 16 16 16 16 16 16 16 17 18 18 18 18 17 17 17 18 19 20 21 21 19
14 13 13 13 13 14 16 18 19 20 21 23 25 25 25 26 26 26 26 27 28 25 19 12 9 9 8 8 10 13 16 18 19 20 21 21 21 21 22 22 22 22 24 25 24 24 24 24 24 22 21 19 18 18 19 19 20 20 20 20 19 18 17 16 16 15 15 16 16 16 17 18 19 19 18 17 17 17 17 18 19 20 22 21 19
14 13 13 13 14 15 17 19 20 21 21 22 24 25 25 26 26 27 27 28 28 29 26 20 15 12 11 10 9 11 14 17 18 19 21 22 22 22 22 23 23 24 25 26 25 24 24 23 23 23 22 20 20 19 19 19 19 19 19 19 19 19 18 17 17 16 16 16 16 16 17 18 18 18 18 17 17 17 16 17 19 21 22 21 18
14 14 13 14 14 15 17 19 21 21 21 21 22 24 24 24 25 26 26 27 28 28 27 25 22 18 15 14 12 11 12 15 17 19 20 21 23 23 23 24 24 25 26 27 26 26 25 24 24 25 23 22 21 20 19 19 19 19 20 20 20 19 18 18 17 17 17 16 16 17 17 17 18 18 17 17 17 16 16 17 18 21 23 21 18
14 13 13 13 12 14 16 18 20 21 21 21 21 23 24 24 24 25 25 25 26 27 26 26 25 24 21 18 15 12 12 13 16 18 19 20 21 23 24 25 26 26 27 28 28 27 27 26 26 25 23 22 21 20 19 18 19 19 20 20 20 19 19 18 18 17 17 17 17 17 17 17 18 18 18 19 17 16 16 15 16 21 24 21 17
13 12 13 12 12 13 15 17 18 19 20 20 20 22 23 24 24 24 25 24 24 25 27 27 26 26 26 24 21 17 16 15 14 15 17 18 18 19 22 24 25 27 29 29 29 28 28 27 26 23 22 21 21 20 18 18 18 19 19 20 20 20 19 18 17 16 15 15 16 16 17 17 19 20 21 20 17 16 16 15 16 20 21 18 16
13 12 13 13 13 14 15 15 16 18 19 19 19 20 22 23 24 23 23 23 22 24 26 27 27 27 27 27 26 23 21 18 15 13 13 15 15 15 17 19 21 24 27 28 29 29 29 28 26 23 22 21 21 20 18 18 19 19 19 19 19 20 20 18 17 15 15 14 14 15 17 17 19 20 19 18 17 17 17 17 18 20 19 16 16
12 13 14 14 14 15 15 15 16 18 19 19 19 19 20 22 22 22 21 22 23 24 25 27 28 29 29 29 29 28 26 24 19 13 10 11 13 13 14 15 16 18 21 24 26 27 29 29 27 25 24 22 21 20 18 18 19 19 19 19 19 19 19 18 17 15 14 13 13 15 17 18 18 18 17 18 20 19 18 19 20 19 18 18 18
13 14 14 14 14 14 14 15 16 18 18 18 18 19 19 20 20 20 20 21 23 24 25 26 28 29 30 31 31 30 30 29 24 17 11 9 10 11 12 13 13 14 15 18 22 26 28 28 27 27 26 24 22 20 19 19 20 19 18 18 18 19 19 19 17 15 13 13 14 16 18 18 18 18 19 20 21 19 19 20 20 19 19 19 18
13 14 14 14 14 14 14 15 16 17 17 18 18 18 18 19 19 20 20 21 22 23 25 27 27 28 30 30 31 31 32 31 28 21 14 12 13 13 14 14 14 14 15 18 22 26 29 28 27 27 27 25 22 20 20 21 21 20 18 18 18 18 18 18 17 15 13 12 13 15 17 19 20 20 20 20 19 19 20 20 19 19 20 19 17
13 14 14 14 14 14 14 14 15 16 17 18 18 18 18 19 20 22 22 22 22 23 25 27 28 28 29 29 29 31 32 32 30 24 17 15 16 16 16 15 14 15 16 19 23 27 29 28 27 27 26 24 22 20 21 22 21 20 19 18 17 17 18 17 16 15 13 12 14 15 17 19 20 20 20 19 18 18 18 17 18 18 17 16 15
13 13 13 14 13 13 13 14 15 16 17 18 18 18 18 20 22 24 25 25 25 26 27 27 27 27 28 27 28 30 32 33 32 28 22 19 17 17 15 13 13 14 16 18 22 26 27 25 26 25 22 20 19 20 21 21 21 21 20 18 17 18 18 17 16 16 14 14 16 17 17 19 20 19 20 19 18 17 15 15 15 14 14 15 15
14 13 13 13 14 14 14 14 14 16 17 18 18 18 19 21 24 26 27 27 28 27 28 27 26 25 25 24 25 28 30 32 33 31 28 24 21 18 15 11 9 11 12 13 16 22 24 21 21 21 20 19 19 21 21 20 21 21 19 17 17 19 20 19 18 17 16 16 17 18 18 19 19 19 19 18 16 15 14 14 14 14 16 17 16
13 12 12 12 13 13 13 13 15 16 17 17 17 18 20 23 26 27 28 28 28 27 26 25 24 23 22 22 23 25 28 29 31 31 29 26 23 19 16 13 9 7 6 6 7 11 13 13 14 16 18 19 19 20 20 21 21 21 19 17 16 18 20 21 20 20 20 18 19 20 19 18 18 18 18 17 16 15 14 14 15 15 16 15 14
12 12 11 11 11 11 13 14 15 16 15 15 16 18 21 24 26 27 29 28 27 25 24 24 23 21 21 21 21 23 25 26 28 28 26 24 23 19 16 13 11 9 6 2 2 2 2 5 10 15 16 16 17 19 21 21 21 20 19 16 14 14 17 20 22 25 26 24 23 23 22 20 18 18 19 19 19 17 15 14 13 13 11 10 8
12 12 11 11 12 13 14 15 15 14 14 15 17 18 21 23 25 27 28 27 25 24 23 23 23 21 21 22 22 22 23 23 25 25 24 23 22 19 16 14 13 11 9 8 6 5 3 4 8 12 13 12 13 15 18 20 21 21 19 17 14 13 14 18 22 26 27 27 27 26 25 24 22 22 22 22 21 19 15 12 11 9 7 6 5
12 12 12 13 14 15 16 16 15 15 15 16 16 18 21 22 24 26 25 23 23 23 23 23 23 23 23 23 23 22 21 21 21 22 23 22 21 20 18 16 15 13 12 11 9 7 8 10 9 8 8 8 8 10 13 15 16 16 15 14 13 14 16 19 23 25 24 24 25 25 24 24 23 22 21 19 16 14 11 8 7 6 5 4 4
14 14 14 15 16 18 18 19 18 18 18 18 17 18 20 22 24 23 22 21 21 21 21 21 22 23 24 24 24 23 22 20 20 21 22 22 22 21 21 20 18 17 16 15 15 15 14 13 11 10 10 9 8 8 9 11 11 11 12 11 11 14 17 19 21 24 23 22 22 23 23 23 20 16 12 10 8 7 7 7 6 6 6 7 8
16 16 15 16 19 20 21 21 21 20 21 22 22 22 21 22 22 21 19 19 20 20 20 21 21 23 23 24 24 24 23 22 22 22 23 23 22 21 21 20 19 18 18 18 18 17 15 14 14 15 15 14 13 13 14 14 14 14 14 14 14 15 17 16 16 17 19 19 19 19 17 17 16 12 10 9 8 7 8 9 8 7 8 9 9
16 16 16 17 19 20 21 22 22 21 22 23 24 24 25 24 22 20 18 19 19 20 21 21 21 22 23 24 23 23 21 21 22 23 24 24 23 21 21 20 19 18 17 17 17 16 15 14 13 14 15 14 14 13 14 15 16 16 16 16 15 15 16 15 13 13 14 14 14 13 13 13 13 12 11 10 9 8 9 10 9 8 9 9 7
16 17 17 17 17 19 21 22 22 22 23 24 24 26 26 26 25 23 21 19 18 19 21 22 22 21 21 22 23 22 21 19 19 21 22 23 23 24 24 23 23 22 20 18 15 13 12 11 10 10 10 10 10 9 10 10 10 11 11 11 10 10 9 9 9 10 11 12 11 11 10 9 9 9 8 7 6 7 7 7 6 5 5 4 4
18 18 17 17 17 19 21 22 22 22 22 22 23 24 24 25 25 25 24 21 19 19 20 22 22 22 21 21 22 22 21 19 19 18 19 20 21 21 22 23 24 23 23 22 19 16 13 11 10 8 6 5 4 5 6 6 6 6 6 7 7 7 6 5 5 6 7 7 7 7 6 5 3 2 1 1 1 1 2 2 3 3 4 5 6
17 17 17 18 18 19 20 21 21 21 20 20 21 21 21 22 24 25 25 23 21 20 20 20 21 21 21 22 22 21 20 20 19 18 18 18 18 18 19 20 21 21 21 21 21 19 18 16 14 10 6 3 2 2 3 3 2 1 0 1 2 3 3 3 3 4 5 5 5 5 5 5 5 5 4 3 3 4 4 5 6 7 7 7 7
16 16 16 16 16 17 17 18 18 18 18 19 20 19 19 20 22 24 25 23 22 21 21 20 20 20 20 20 21 21 21 21 21 20 19 19 18 18 18 18 19 19 19 18 18 19 19 18 17 15 12 10 7 5 3 1 1 2 3 3 4 5 6 6 7 6 6 7 7 8 8 8 7 6 5 6 7 6 6 7 7 7 7 7 7
16 16 16 16 15 15 15 16 16 16 17 18 19 18 18 19 20 22 24 23 22 22 22 22 20 20 19 19 19 19 20 20 20 20 20 20 20 20 20 20 19 18 17 17 17 18 18 17 16 16 16 15 15 15 13 12 10 9 9 9 9 9 9 9 10 10 9 9 10 10 10 10 9 8 7 7 6 6 6 6 6 7 6 5 5
14 14 14 15 15 15 15 16 16 15 16 17 18 18 18 18 19 21 22 22 21 21 22 22 21 20 19 19 19 19 18 18 18 18 19 20 21 22 22 22 21 19 18 17 17 17 17 16 16 16 15 14 14 14 14 14 14 14 14 13 12 12 12 11 11 9 9 8 8 8 9 9 8 7 6 5 5 5 6 6 6 5 4 4 4
Wind_Direction
217 224 232 249 256 249 249 260 265 262 255 249 242 243 248 247 246 248 251 255 257 255 254 253 253 253 251 248 246 244 241 240 239 235 233 227 220 222 223 220 219 220 227 229 225 223 224 225 221 221 223 218 211 211 214 211 208 212 215 213 210 210 213 209 204 207 204 187 179 182 189 201 206 196 197 214 211 194 187 176 169 178 182 180 180
225 226 225 241 256 255 255 260 266 266 265 266 260 250 251 253 253 256 260 263 265 264 264 262 261 260 256 250 245 245 245 245 245 239 233 231 228 226 225 222 219 222 228 231 230 227 226 227 224 222 224 221 216 218 219 214 212 215 214 211 207 207 217 220 209 198 196 194 184 175 172 185 209 210 210 223 215 194 188 179 174 185 184 182 191
226 225 222 232 241 251 260 268 271 269 270 276 279 271 264 263 262 263 266 268 268 267 267 267 269 268 258 250 249 247 246 248 249 240 230 232 233 231 230 226 222 225 228 228 227 226 226 226 225 223 225 222 220 224 222 212 212 215 216 216 215 214 218 222 217 205 199 198 188 177 174 177 199 212 214 227 222 205 199 196 191 195 198 199 199
217 218 226 232 234 246 259 270 273 268 272 283 286 282 278 279 278 277 276 272 267 264 264 266 271 272 264 257 256 253 250 251 250 241 230 230 233 230 231 229 226 229 231 227 225 226 226 224 223 223 225 224 220 222 224 218 215 216 220 223 223 224 223 220 216 210 206 200 187 184 187 191 211 212 207 222 225 211 206 204 200 201 204 205 201
228 219 231 235 238 246 255 270 284 284 285 285 284 283 281 282 283 283 280 277 275 272 272 273 275 277 277 273 264 254 251 250 249 240 228 225 228 227 227 227 227 228 228 227 225 225 226 224 223 225 226 224 219 218 221 222 222 225 229 230 228 230 230 226 217 209 209 209 200 188 186 202 222 215 211 222 222 211 205 197 201 212 209 203 199
28 243 246 25 341 274 272 293 309 304 292 280 276 277 278 279 281 284 285 287 294 294 289 285 283 284 285 283 276 264 253 248 245 238 229 225 226 226 225 223 225 226 224 225 224 223 224 223 223 225 225 223 220 219 219 219 223 229 232 232 229 231 232 231 227 213 207 212 213 207 198 206 215 207 206 215 215 214 211 197 197 215 211 198 193
42 47 53 50 46 55 44 356 310 288 276 268 264 267 275 283 288 293 293 295 305 312 305 293 288 288 287 288 288 280 261 250 246 237 234 234 229 226 224 222 222 223 222 224 223 219 221 222 220 221 220 218 217 217 218 219 222 227 230 230 228 229 229 230 233 225 214 211 211 213 214 215 214 202 199 206 206 205 210 204 201 208 202 189 188
56 58 60 50 41 41 24 349 322 302 290 287 284 285 292 295 299 304 307 311 318 319 313 303 297 295 293 292 291 285 268 254 247 237 238 240 232 229 231 228 223 222 224 225 221 217 218 219 216 213 211 211 213 215 217 219 221 223 224 225 227 228 227 226 230 232 226 217 210 211 214 219 225 212 199 204 196 187 196 204 202 202 194 184 190
65 67 66 58 43 32 12 348 334 324 315 312 309 302 302 305 307 311 319 329 330 323 318 318 321 320 315 306 294 284 269 255 249 246 249 247 237 238 243 239 231 227 226 222 219 217 215 214 211 208 209 212 214 215 216 220 221 221 222 225 226 226 224 221 223 230 232 227 220 215 214 217 220 220 210 205 193 180 186 199 199 194 192 192 196
62 63 63 60 52 40 22 355 338 329 318 323 329 317 315 328 333 332 335 341 342 333 323 323 332 335 333 325 302 278 262 254 253 255 259 259 247 243 247 248 244 240 230 219 217 219 215 211 209 208 211 215 217 218 221 223 222 221 224 228 227 224 221 218 219 222 225 227 228 224 221 220 221 225 228 213 207 197 183 195 198 191 192 196 197
60 62 62 60 55 45 33 9 340 322 309 320 336 340 337 340 341 345 348 349 348 333 317 317 327 328 327 325 310 283 265 259 263 268 275 282 277 268 260 253 246 242 234 224 220 220 218 214 210 210 213 217 219 221 225 227 225 222 225 227 223 220 220 218 217 215 213 216 221 224 228 230 231 235 250 240 223 219 187 183 193 190 189 195 200
64 63 60 56 52 45 38 26 358 332 319 325 336 341 342 337 329 329 331 333 337 332 325 325 326 319 310 309 304 292 277 267 273 281 289 293 292 288 274 258 247 237 228 225 224 220 218 216 213 213 216 218 220 222 226 227 226 224 223 220 216 215 217 216 215 213 213 214 214 218 225 233 236 234 242 247 224 219 195 177 186 189 184 195 203
63 61 58 54 48 42 37 31 19 3 352 348 343 340 340 336 329 325 321 319 321 324 325 324 321 315 304 297 290 283 273 263 269 279 285 288 287 284 274 262 254 243 227 221 223 221 220 218 216 217 219 222 224 225 226 225 224 220 217 214 213 213 213 214 215 214 216 218 216 215 220 229 233 227 229 234 214 209 199 178 181 188 184 192 197
62 60 60 57 51 46 41 33 27 21 15 7 356 347 341 335 331 327 322 318 315 316 318 317 315 312 309 305 296 287 278 267 270 279 285 286 284 280 272 264 260 251 236 226 222 221 223 222 222 223 224 226 227 226 223 220 218 215 212 212 213 213 212 212 214 214 216 220 219 217 220 223 223 221 228 231 216 209 206 191 183 181 184 191 190
60 61 60 58 54 49 44 37 30 24 17 8 357 350 342 335 333 331 327 323 320 319 319 317 312 308 307 307 300 293 287 278 278 283 286 290 294 293 284 274 266 252 238 233 228 226 227 228 228 227 227 228 227 225 220 216 213 211 211 213 214 213 212 211 213 214 216 220 219 216 221 222 216 216 226 228 214 204 211 213 203 186 181 187 194
56 57 56 53 50 45 38 33 26 16 6 359 352 346 342 340 338 334 330 327 322 317 312 305 299 297 295 295 293 289 287 284 281 283 287 293 303 304 291 276 266 248 231 228 230 229 227 230 232 230 229 229 226 223 219 215 212 211 211 214 215 215 214 213 215 217 220 224 221 214 219 222 213 212 219 222 210 199 203 211 216 205 189 180 188
54 53 50 45 41 39 31 23 14 3 354 352 351 348 346 343 340 337 332 326 318 313 311 307 301 294 279 267 267 268 272 279 279 283 289 296 307 300 279 261 254 242 225 220 224 224 223 228 232 231 230 227 223 221 219 216 215 214 213 215 216 216 216 218 219 221 225 227 223 215 211 211 210 209 213 216 208 200 203 201 202 209 199 184 175
56 52 51 45 39 39 32 19 14 9 1 359 358 356 352 346 342 341 339 337 331 323 321 317 309 297 274 256 252 252 252 266 285 290 282 278 285 278 263 253 248 238 224 216 217 218 222 227 228 227 226 223 221 220 219 218 218 218 217 217 217 216 217 221 221 224 228 226 224 222 210 200 204 206 205 211 208 200 204 203 197 195 195 196 188
54 51 50 45 39 39 33 24 20 16 10 9 8 3 357 352 350 349 347 345 341 334 328 322 316 305 282 263 258 256 251 258 277 275 245 246 259 257 251 249 244 236 227 218 216 219 222 224 221 219 220 222 222 221 220 220 219 220 220 217 215 215 217 220 220 222 226 224 225 228 216 202 202 203 202 205 205 202 203 202 198 188 185 193 202
55 52 51 48 44 41 36 29 20 14 15 17 16 11 3 359 356 352 350 347 343 339 332 325 319 313 298 274 261 260 255 253 261 255 231 232 250 252 249 245 239 239 237 226 220 222 223 222 218 216 219 222 223 222 221 221 220 222 222 218 216 216 218 220 220 220 223 223 224 227 224 215 207 202 204 205 202 203 205 201 196 188 181 183 193
57 52 50 49 49 43 37 32 24 22 25 24 24 22 17 13 6 356 349 345 343 342 336 327 318 310 304 284 258 249 248 246 251 253 243 237 245 250 250 245 237 236 236 227 221 221 222 221 218 217 221 223 222 221 220 220 220 221 222 221 219 217 217 220 222 222 223 224 225 223 224 224 215 204 207 208 205 203 202 202 195 184 178 176 177
56 52 49 47 45 39 31 26 24 25 26 24 25 25 22 21 17 9 1 353 347 344 337 330 320 304 295 280 248 239 245 250 251 252 248 245 249 249 246 243 237 233 229 223 221 221 221 220 218 218 222 222 220 218 219 219 219 220 221 223 224 219 216 219 223 224 223 223 224 222 221 224 220 211 210 209 206 203 202 203 195 179 173 169 165
53 52 51 48 42 35 28 26 29 29 26 24 24 25 23 23 22 19 14 7 357 349 339 331 324 305 290 279 262 254 253 254 254 252 247 245 249 250 245 240 238 236 231 224 221 222 222 220 217 218 222 221 217 216 217 219 219 221 222 224 227 224 219 219 222 223 224 224 223 222 221 222 220 213 211 209 205 203 202 203 196 179 172 169 164
57 57 57 51 44 38 34 34 35 31 28 28 29 28 25 24 25 24 21 17 8 357 344 334 326 304 286 277 271 266 260 255 255 254 250 246 249 251 248 242 239 237 234 227 222 222 223 223 221 218 219 218 217 216 217 220 221 221 223 224 226 225 222 222 223 223 224 223 223 222 221 220 217 213 211 210 206 201 200 202 197 183 178 176 170
65 62 60 52 43 39 38 37 35 33 34 35 34 31 28 28 29 27 25 22 16 10 358 345 337 315 287 272 265 262 263 263 262 258 252 248 248 249 247 242 238 235 233 230 226 222 221 222 223 222 219 216 217 219 219 222 222 221 222 223 224 225 224 224 225 223 222 221 219 219 219 217 215 213 212 210 206 202 200 202 197 185 182 182 179
66 62 59 51 41 38 38 37 36 36 37 38 35 34 33 33 33 30 26 22 19 18 15 4 356 343 313 287 272 265 264 266 265 263 260 256 253 249 245 242 238 235 233 231 229 225 221 220 221 225 224 220 221 223 223 224 224 221 221 220 221 223 223 224 225 222 221 219 214 213 215 215 215 215 213 209 205 201 200 202 198 188 183 185 185
65 61 57 51 43 40 38 36 37 39 39 38 36 35 35 34 33 30 28 25 23 23 24 22 16 6 351 324 294 279 274 271 268 266 265 264 261 255 248 244 241 239 236 232 230 227 225 222 221 223 225 223 225 230 229 227 224 222 221 220 220 220 220 222 223 219 217 214 210 210 212 214 216 216 213 208 205 202 199 200 199 191 186 186 187
65 63 60 55 49 44 40 37 38 39 39 38 36 35 35 34 30 27 26 26 26 25 25 24 22 15 7 354 329 301 287 279 275 272 267 266 265 260 254 248 244 242 238 234 232 229 228 226 223 222 221 221 226 233 232 228 225 223 222 220 220 220 218 218 218 215 213 211 210 211 212 215 217 216 213 207 205 203 202 203 200 192 190 191 191
64 63 62 59 53 46 42 38 38 37 37 37 35 32 31 31 28 24 23 25 27 26 26 26 24 20 11 359 345 324 302 287 280 276 271 267 264 263 260 254 249 245 239 235 233 230 229 229 225 221 217 217 225 231 230 229 227 224 223 221 219 218 216 215 213 210 210 210 211 211 212 214 214 215 214 209 207 205 205 211 205 193 193 197 196
63 61 62 61 55 50 46 41 38 36 35 33 32 30 27 26 26 22 21 24 27 27 29 30 29 26 20 11 2 345 325 306 289 280 275 271 267 265 262 258 253 249 244 238 233 230 230 230 225 218 213 216 224 227 227 229 228 223 221 220 217 213 211 208 205 205 207 209 212 212 212 213 213 213 212 209 209 207 205 213 209 195 196 200 199
64 61 61 60 55 51 48 42 37 35 34 30 30 30 27 24 24 21 20 23 27 28 29 29 29 28 26 21 14 3 348 331 310 292 282 276 273 271 266 262 258 251 246 241 236 232 231 229 221 213 212 216 220 223 225 225 222 220 218 215 210 205 201 198 198 202 209 212 216 217 215 214 213 214 214 211 206 202 199 200 196 192 195 201 203
66 61 58 55 51 48 45 40 35 33 31 27 27 29 27 24 23 21 19 20 25 29 28 25 23 23 23 22 18 12 3 351 334 314 294 282 278 277 276 275 269 258 251 248 242 235 232 228 220 212 213 217 218 220 222 219 216 214 209 204 202 198 195 196 199 204 211 217 222 220 218 218 215 214 217 213 199 195 197 195 191 192 197 200 202
67 61 57 53 48 45 42 38 34 34 32 26 24 25 26 25 24 22 20 20 24 27 26 24 22 20 20 19 17 14 11 5 354 338 316 295 283 280 283 285 279 267 260 255 247 239 234 231 222 214 212 215 217 217 216 212 208 205 200 198 201 202 201 202 202 204 211 217 220 219 217 216 211 207 209 204 193 191 196 195 192 194 196 196 198
68 63 60 55 51 47 43 40 39 37 34 29 25 23 24 26 26 24 23 22 23 23 23 22 22 20 19 18 16 13 11 8 3 354 339 321 309 301 297 295 290 281 271 262 251 242 237 232 225 220 216 213 213 216 212 207 203 200 199 201 205 207 206 204 203 204 211 217 220 219 215 209 202 197 195 192 187 187 192 192 191 193 194 195 197
70 67 62 57 53 48 44 42 41 38 35 32 29 26 26 28 30 29 27 25 23 21 21 21 19 18 17 17 17 15 13 9 5 0 354 347 342 330 315 309 301 286 272 262 251 240 234 231 225 222 220 213 211 213 208 204 202 200 200 203 207 206 203 203 203 205 212 218 217 215 210 204 198 191 187 185 184 188 192 190 188 189 189 187 188
73 69 63 59 54 49 46 44 42 40 38 35 33 31 31 32 35 35 32 28 24 22 21 20 17 15 14 16 18 19 18 16 11 8 6 2 356 343 324 309 297 280 262 254 247 237 232 229 224 221 218 212 210 210 206 204 204 203 202 204 207 205 203 205 208 208 211 211 204 202 201 199 195 189 183 179 180 185 188 185 185 185 178 176 180
79 74 68 65 60 56 54 50 46 45 43 41 41 38 36 36 38 38 35 30 26 23 20 18 17 15 12 13 18 20 21 22 22 20 19 15 7 356 339 315 294 277 258 245 240 234 229 226 223 219 213 208 207 204 202 204 204 203 205 209 212 212 211 214 215 210 206 200 194 193 194 193 188 182 176 173 177 186 187 183 187 189 182 181 184
86 80 74 70 64 61 60 55 53 53 50 49 47 42 40 39 39 39 36 32 27 23 19 17 17 16 12 11 17 20 22 27 29 28 27 24 18 9 359 345 319 289 268 252 238 228 221 221 220 212 203 201 202 197 198 203 203 202 208 215 220 221 219 219 219 210 200 196 192 189 190 193 189 182 179 182 193 200 194 187 192 193 187 183 180
85 79 74 70 64 61 59 56 55 53 50 49 46 43 43 42 40 40 37 34 30 25 21 19 18 17 16 15 19 21 23 30 35 35 34 32 27 21 18 16 9 343 309 280 239 212 207 214 211 200 195 197 198 198 201 203 201 202 210 217 221 223 219 220 221 209 198 196 195 189 190 197 199 194 193 197 202 201 192 188 188 185 181 179 178
83 78 74 68 63 59 55 53 50 46 42 40 38 40 43 44 43 42 39 37 33 29 26 23 20 20 22 22 24 26 28 34 39 40 40 41 38 32 30 36 41 38 38 60 90 64 330 254 206 191 194 199 200 202 204 203 202 204 208 213 220 222 218 219 219 208 197 194 195 191 190 196 202 202 201 199 196 190 185 183 180 180 186 190 191
86 81 75 70 66 61 56 52 48 41 37 34 33 37 42 43 42 42 41 38 35 32 31 29 26 26 27 29 32 32 33 37 43 46 46 47 48 44 41 52 61 62 68 70 47 13 312 224 175 172 187 199 202 201 198 200 205 205 203 206 214 219 220 221 218 208 197 191 190 189 188 191 195 197 196 194 191 184 180 181 182 186 199 205 209
86 81 74 70 66 61 57 52 47 41 37 34 34 39 43 42 40 39 38 34 30 30 31 31 32 33 34 36 38 38 38 41 46 52 53 52 55 55 52 56 64 70 76 74 66 85 127 139 139 152 171 180 188 193 193 197 202 199 194 199 209 215 218 218 215 210 203 195 189 187 187 188 189 192 192 190 189 184 180 183 191 202 221 237 256
84 78 72 69 67 63 59 55 51 47 44 41 43 44 44 43 41 37 33 30 28 28 29 30 35 38 39 42 44 45 46 47 51 57 60 58 59 62 61 60 61 64 70 77 81 89 99 108 117 122 124 132 147 159 171 184 190 185 184 192 203 206 206 206 204 199 196 192 186 183 184 186 187 190 191 188 190 196 199 206 215 234 255 270 278
84 77 72 72 70 66 62 58 55 53 51 50 51 50 47 45 42 36 32 31 31 31 31 34 38 43 44 45 48 52 54 56 56 57 56 55 56 58 60 59 58 58 62 67 71 76 81 88 94 97 100 108 120 128 137 149 159 161 161 164 171 176 177 181 184 178 173 176 178 177 181 187 189 191 193 193 195 201 211 223 238 255 266 272 275
82 75 72 74 73 68 63 59 56 54 53 54 54 53 50 47 42 37 34 35 36 36 38 41 44 47 49 48 49 53 55 56 55 52 50 50 50 50 52 52 52 52 53 55 56 58 64 70 74 76 80 85 92 101 112 125 136 143 148 152 159 165 168 173 180 178 175 178 181 181 186 192 194 198 203 205 208 217 227 235 244 249 253 261 270
83 77 74 76 75 69 62 59 57 55 56 58 58 55 52 48 44 40 37 37 38 41 45 47 48 49 53 54 53 53 52 51 51 50 49 48 47 47 49 50 49 49 47 45 44 44 47 51 53 54 55 56 57 60 68 84 102 118 127 131 136 143 149 153 160 167 173 178 179 178 181 186 193 201 207 212 220 229 232 232 234 235 237 241 241
81 77 76 75 72 67 61 59 57 55 56 58 56 53 50 45 42 40 38 36 38 43 47 50 49 49 51 54 57 57 55 53 53 52 51 51 50 48 47 47 47 45 43 41 40 40 41 40 38 35 29 23 16 14 21 34 49 69 88 96 103 108 108 113 124 126 127 135 148 157 162 161 152 141 128 120 164 192 198 192 186 183 182 184 188
78 75 75 73 69 66 63 60 58 55 55 54 50 47 44 41 39 37 35 35 38 42 46 50 52 51 50 50 52 55 56 56 54 52 52 52 50 47 46 47 46 43 39 36 36 38 41 41 40 42 42 32 342 296 294 306 324 330 74 148 155 145 119 105 104 92 85 95 121 142 141 117 84 70 71 96 118 128 144 156 161 162 165 171 176
76 74 72 70 68 65 62 59 56 55 55 54 51 46 41 39 39 36 33 35 39 42 44 47 50 51 50 48 47 47 49 52 53 52 51 50 48 46 45 48 50 47 42 38 36 39 41 41 41 46 52 56 63 66 70 85 161 200 187 179 177 171 157 142 132 127 121 114 108 108 107 100 96 104 128 141 142 144 152 159 163 168 172 177 184
77 74 69 66 62 59 57 54 52 51 53 53 51 47 42 39 39 37 34 35 41 43 42 42 45 47 48 48 47 45 44 46 50 52 53 51 51 50 49 48 49 48 45 44 43 44 45 44 44 47 51 55 59 63 68 73 80 88 94 95 96 101 107 107 103 99 98 97 97 103 111 116 124 137 145 147 147 155 171 183 187 189 190 195 201
81 74 67 60 55 51 50 50 50 50 51 49 48 47 44 40 38 36 33 34 40 45 44 40 41 43 45 45 47 47 46 46 48 52 54 52 52 53 54 53 52 50 49 49 48 47 47 46 47 47 46 48 52 57 63 70 74 79 82 82 84 86 88 90 91 92 98 107 116 124 128 132 142 152 159 168 175 185 199 208 210 212 214 213 206